Timeline UpdatesTrip UpdatesNews PostsPvt PostsTravel TipsAdmin PostsConv PostsFollowed PostsChat RequestsBlog PostsPNR Posts

Disclaimer
Search
 
 
Wed Jul 30, 2014 20:42:20 ISTHomeTrainsΣChainsAtlasPNRForumGalleryNewsFAQTripsMembersLoginFeedback
No Recent News for this Train
Other Trains in the News **new
Latest...
Short Origination from Purulia on 1/6/14 #1118541.
Sat May 31, 2014 (05:06PM)
⇐ Return Journey: Train# 68019

68020/Dhanbad-Jhargram MEMU

Feb 27 2014 (11:10PM)
Change Departure Station:
Change Arrival Station:
Post a Train Travel TipPost a Train Travel Tip **new
Post a Comment/Question/Picture/VideoPost a Comment/Question/Picture/Video
Inaugural Run
Wed May 18, 2011
Pantry/Catering
✕ NO Pantry Car
✕ NO Catering
RSA - Rake Sharing
Rake/Coach Composition
.
Loco
News    PNR    Forum    Time-Table    Availability    Fare Chart    Map    Arr/Dep History    Trips    Gallery    ΣChains    X/O    Timeline    
Travel Time: 2h 35m    13 halts    Distance: 107 km    Avg Speed: 41 km/hr
Type: MEMU
Zone: SER/South Eastern
Departs @ 19:15 (Avg 35m late)
Platform# ???
SMTWTF 
Gamharia/GMH 
Arrives @ 21:50 (Avg 21m late)
Platform# ???
SMTWTF 
Jhargram/JGM 

13 halts. 13 intermediate Stations between Gamharia and Jhargram

Show ALL intermediate Stations  Show Old Time-Table

#CodeStation NameX/OArrivesAvgDepartsAvgHaltPFDay#KmSpeedElevZoneAddress
1DHNDhanbad Junction (8)  -14:20+14--1-192.530235mECR2319801. Div. HQ ECR, Jharkhand
2KDSKusunda Junction (2)  14:28+2014:29+201m--1-188.533218mECRKusunda, Jharkhand
3BZEBaseria (2)  14:33-14:34-1m--1-186.231210mECRBaseria, Jharkhand
4BZSBansjora  14:38+2014:39+201m--1-184.238212mECRDhanbad, Jharkhand
5SJASijua  14:43+1914:44+191m--1-181.718206mECRSijua, Jharkhand
6ANJEAngarpathra HaltX  14:48-14:49-1m--1-180.518204mECRAngarpathra, Jharkhand
7KTHKatrasgarh (1)  14:55+1914:57+192m11-178.738198mECRKatrasgarh, Jharkhand
8TNJETentulla  15:01-15:02-1m--1-176.222196mECRTentulla, Jharkhand
9SZESonardih  15:06+2015:07+231m--1-174.722197mECRSonardih, Jharkhand
10TNOTundu  15:11-15:12-1m--1-173.240198mECRTundu, Jharkhand
11BDQBudora  15:15-15:16-1m--1-171.217210mECRBudora, Jharkhand
12PLJEPhulwartanr (2)  15:19+2315:20+241m21-170.450219mECRPhulwartanr, Jharkhand
13JMXJamuni  15:23-15:24-1m--1-167.938204mECRJamuni, Jharkhand
14JNNAJamuniatanr Halt (1)  15:28+2415:29+261m11-165.464182mECRNational Highway 32, Jharkhand
15DNHDeonagar  15:33-15:34-1m--1-161.112223mECRDeonagar, Jharkhand
16CRPChandrapura Junction (2)  15:48+2115:50+262m11-158.228227mECR06549-242555, Jharkhand
17RJBRajaberaX  15:59+2916:00+291m--1-154.132198mECRStation Rd, Jharkhand
18TKBTupkadih (3)X  16:09+3116:10+321m--1-149.340233mSERBokaro, Jharkhand
19BKSCBokaro Steel City (3)  16:20+2316:22+232m21-142.650245mSER06542-253861, Jharkhand
20RDFRadhagaon (3)X  16:30+3216:31+371m--1-136.086247mSERPundag Railway Station Rd, Jharkhand
21PNWPundhag (3)X  16:38+3816:39+381m21-126.048291mSERDist - Puruliya -723215, West Bengal
22GUGGarh Jaipur  17:02+4317:03+431m--1-107.689292mSERJaipur, West Bengal
23CASChas Road (1)  17:09+4317:10+431m11-98.766291mSERNational Highway 32, West Bengal
24GTDGourinathdham (1)  17:15+3617:16+361m11-93.247277mSERNational Highway 32, West Bengal
25PRRPurulia Junction (4)  17:35+2817:37+292m--1-78.260240mSERPurulia, West Bengal
26TAOTamna  17:44+3417:45+361m--1-71.179236mSERNational Highway 32, West Bengal
27KTDKantadih  17:51+3617:52+361m--1-63.281274mSERNational Highway 32, West Bengal
28URMAUrmaX  17:58+3717:59+371m--1-55.187266mSERNational Highway 32, West Bengal
29BBMBarabhum  18:05+3718:06+371m--1-46.466229mSERBalarampur, West Bengal
30BRMDBiramdih  18:11+3718:12+381m--1-40.982263mSERNational Highway 32, West Bengal
31NIMNimdih  18:18+4018:19+411m--1-32.832209mSERNational Highway 32, Jharkhand
32CNIChandil Junction (4)X  18:35+3718:36+371m--1-24.151178mSERChandil, Jharkhand
33MIKManikul (2)X  18:43+4918:44+491m--1-18.251170mSERJharkhand 832401, Jharkhand
34KZUKunki (2)  18:50+4018:51+401m--1-13.132163mSERNational Highway 33, Jharkhand
35KNDKandra (4)  18:57+4118:58+411m--1-9.937176mSERJamshedpur, Jharkhand
36GMH»Gamharia (3)»  19:14+3419:15+351m--10.040165mSERJamshedpur, Jharkhand
37ADTPAdityapur (3)  19:24+2819:25+281m--16.028152mSERJamshedpur, Jharkhand
38TATATatanagar Junction (5)X  19:35+2219:45+2210m--110.726164mSER91-657-2423026, Jharkhand
39SLJRSalga JhariX  19:50-19:51-1m--112.856179mSERJamshedpur, Jharkhand
40ASBAsanboni  20:02+4520:03+451m--123.182129mSEREast Singhbhum, Jharkhand
41RHERakha Mines (2)X  20:08+4120:09+411m--130.059118mSEREast Singhbhum, Jharkhand
42GUDGaludih (4)  20:16+4320:17+431m--136.975120mSEREast Singhbhum, Jharkhand
43GTSGhatsila (3)X  20:25+3720:26+371m--146.966103mSEREast Singhbhum, Jharkhand
44DVMDhalbhumgarh  20:37+3220:38+321m--158.978115mSERDhalbhumgarh, Jharkhand
45KKPRKokpara  20:46+3120:47+311m--169.361102mSEREast Singhbhum District, Jharkhand
46CKUChakulia (4)  20:55+2920:56+301m--177.460126mSERChakulia, Jharkhand
47KNMKanimahuli  21:02+2821:03+291m--183.465110mSERState Highway 4, West Bengal
48GIIGidni (3)  21:10+3821:11+381m--191.06283mSERState Highway 4, West Bengal
49KATBKhatkura  21:18+1021:19+101m--198.21679mSERState Highway 4, West Bengal
50JGM•Jhargram (4)•  21:50+21---1106.6-82mSERJhargram, West Bengal
Scroll to Top
Scroll to Bottom